Find Starlink 2688

NORAD ID: 48660 Int'l Des: 2021-044 Owner: SPXS Country: US Constellation: starlink decayed
LEOCIRCULAR

Re-entered — Jan 7, 2025

正在加载3D地球...

About Starlink 2688

Starlink 2688 (NORAD 48660) is a starlink constellation satellite (v1.0) launched May 26, 2021 by SPXS of US. It re-entered the atmosphere on Jan 7, 2025. with a mass of 260.00 kg.

关于 Starlink 2688

正在加载描述...

高度历史

Loading altitude history...

两行轨道根数

1 48660U 21044Y 25007.60727928 .07105979 12169-4 11653-2 0 9999
2 48660 53.0381 214.4578 0003867 279.1268 177.6883 16.32695150200602
Epoch: Jan 7, 2025 • Age: 12597 hours

当前状态

Position data unavailable
发射日期 May 26, 2021
运行时间 5 years
衰减日期 Jan 7, 2025
类型 internet

技术详情

分类 Payload
质量 260.00 kg
干质量 248.00 kg
总质量 260.00 kg
长度 0.20 m
直径 2.80 m
跨度 9.00 m
形状 Box + pan
制造商 SPXS
平台类型 Starlink
阶段状态 Unknown Transfer Status
所有者/国家 SPXS/US

Most Searched